Zurück zum Katalog

STARLINK-33749

AktivKommunikationVLEO
NORAD 63716·PAYLOAD·🇺🇸 United States

Gestartet Apr 28, 2025 von Vandenberg Space Force Base

Loading…

Nächste Überflüge (nächste 24 Stunden)

TLE

AktuellSource: CelesTrak SupGP

Epoche: Sep 14, 2026, 22:40 UTC

1 63716C 25087V   26257.94493056  .00039671  00000+0  12761-2 0  2578
2 63716  53.1581  59.2504 0001249  84.9963 245.9963 15.31672388    11

Verfolge STARLINK-33749 in Echtzeit mit AllMySat

Download on the App Store